Regional Weather Roundup
Issued by NWS Boston, MA

Current Version | Previous Version | Text Only | Print | Product List | Glossary Off
Versions: 1 2 3 4 5 6 7 8 9 10 11 12 13 14 15 16 17 18 19 20 21 22 23 24 25 26 27
000 ASUS41 KBOX 222310 RWRBOX REGIONAL WEATHER ROUNDUP NATIONAL WEATHER SERVICE TAUNTON MA 700 PM EDT TUE AUG 22 2017 NOTE: "FAIR" INDICATES FEW OR NO CLOUDS BELOW 12,000 FEET WITH NO SIGNIFICANT WEATHER AND/OR OBSTRUCTIONS TO VISIBILITY. MAZALL-230000- EASTERN MASSACHUSETTS CITY SKY/WX TMP DP RH WIND PRES REMARKS BOSTON MOCLDY 80 72 76 S18 29.76F BEVERLY MOCLDY 84 72 67 S13G18 29.74F LAWRENCE CLEAR 88 68 51 S13G20 29.75F HX 91 BEDFORD CLEAR 83 68 60 S16G23 29.74F BLUE HILL N/A 78 70 76 S23G32 29.79F NORWOOD CLEAR 81 74 79 S13G20 29.77F MARSHFIELD PTCLDY 79 73 83 SW15G28 29.80F PLYMOUTH CLOUDY 76 71 85 SW14G21 29.83F TAUNTON CLOUDY 77 71 82 SW14G29 29.82F NEW BEDFORD CLOUDY 75 72 90 SW16 29.83F $$ MAZALL-230000- CAPE COD AND THE ISLANDS CITY SKY/WX TMP DP RH WIND PRES REMARKS FALMOUTH MOCLDY 75 72 88 SW21G31 29.87S HYANNIS CLOUDY 76 73 91 SW20G35 29.85S CHATHAM CLOUDY 74 73 97 SW14G21 29.87F FOG PROVINCETOWN CLOUDY 74 72 93 SW16G23 29.83F NANTUCKET CLOUDY 72 72 100 S17 29.89F FOG MARTHAS VNYRD CLOUDY 74 71 91 S16 29.87F $$ MAZALL-230000- CENTRAL AND WESTERN MASSACHUSETTS CITY SKY/WX TMP DP RH WIND PRES REMARKS WORCESTER CLOUDY 79 68 69 SW21G32 29.80F FITCHBURG PTCLDY 86 70 58 S9G21 29.76F HX 90 ORANGE CLOUDY 83 72 69 S14 29.75F SPRINGFIELD MOCLDY 83 71 67 S15G24 29.74F WESTFIELD CLOUDY 83 74 74 S15G22 29.74F NORTH ADAMS CLOUDY 83 67 58 SW10G18 29.72F PITTSFIELD CLOUDY 80 65 59 S10G20 29.76F $$ RIZALL-230000- RHODE ISLAND CITY SKY/WX TMP DP RH WIND PRES REMARKS PROVIDENCE MOCLDY 79 73 82 SW13G22 29.82F NEWPORT CLOUDY 74 74 100 S14G22 29.84F FOG BLOCK ISLAND MOCLDY 73 72 96 S15 29.85F WESTERLY MOCLDY 76 73 91 SW13G21 29.84F $$ CTZALL-230000- CONNECTICUT CITY SKY/WX TMP DP RH WIND PRES REMARKS BRADLEY INTL CLOUDY 83 74 74 S18G24 29.76F HARTFORD CLOUDY 83 74 74 S16G24 29.76F BRIDGEPORT CLEAR 81 74 79 S18G26 29.78F DANBURY CLOUDY 84 74 71 S7 29.80F HX 91 GROTON CLEAR 75 71 87 SW7 29.82F NEW HAVEN PTCLDY 80 73 79 S12 29.80F CHESTER FAIR 79 75 89 S10 29.83F MERIDEN CLEAR 80 73 79 S14G22 29.79F WILLIMANTIC MOCLDY 81 75 82 S12G21 29.80F OXFORD PTCLDY 79 74 84 S10G18 29.82F $$ MEZ002-015-021-024-NHZ003-005-008-011-012-014-VTZ005-008-230000- NORTHERN NEW ENGLAND CITY SKY/WX TMP DP RH WIND PRES REMARKS PORTLAND ME MOCLDY 73 67 81 S12 29.71F BANGOR ME CLOUDY 72 68 87 S13 29.74F CONCORD NH CLOUDY 83 69 62 S9 29.71F MANCHESTER NH MOCLDY 86 67 52 S13G21 29.71F NASHUA NH CLOUDY 84 71 65 VRB6 29.74F PORTSMOUTH NH MOCLDY 85 69 57 S8 29.70F JAFFREY NH MOCLDY 82 70 66 S12 29.78F KEENE NH N/A N/A N/A N/A MISG N/A BURLINGTON VT CLOUDY 74 71 91 S14 29.64R MT. WASHINGTON FOG 57 57 100 SW31G53 N/A VSB 1/16 $$ NYZ052-076-230000- EASTERN NEW YORK CITY SKY/WX TMP DP RH WIND PRES REMARKS ALBANY CLOUDY 85 68 56 S14G22 29.68F NEW YORK CITY MOCLDY 86 75 69 S14G22 29.78F HX 95 $$ ANZALL-230000- MARINE OBSERVATIONS STATION/POSITION TIME TEMP WIND PRES VSBY WAVE AIR SEA DIR/SP/G HT/PER (UTC) (F) (DEG/KT/KT) (MB) (MI) (FT/S) BOSTON BUOY 2250 75 68 190/ 21/ 25 1008.0F 3/ 4 BUZZARDS BAY 2200 72 200/ 24/ 26 1011.0F NANTUCKET SOUND 2250 73 71 210/ 19/ 23 1011.1F 2/ 3 MASS BAY-STELLWA 2204 72 67 170/ 17/ 19 1007.9F 3/ 4 ISLE OF SHOALS 2200 74 170/ 23/ 24 1006.9F S OF BLOCK IS NOT AVBL $$ ......................KEY......................... SKY/WX - SKY CONDITION/PRESENT WEATHER TMP - TEMPERATURE IN FAHRENHEIT DWPT - DEWPOINT IN FAHRENHEIT RH - RELATIVE HUMIDITY IN PERCENT WIND - DIRECTION AND SPEED IN MPH PRES - MEAN SEA LEVEL PRESSURE IN INCHES OF HG WCI - WIND CHILL INDEX VSB - VISIBILITY IN MILES HX - HEAT INDEX TC - TEMPERATURE IN CELSIUS VRB - VARIABLE WIND DIRECTION N/A - NOT AVAILABLE

USA.gov is the U.S. government's official web portal to all federal, state and local government web resources and services.